Retour au catalogue

COSMOS 839 DEB

ActifUNKNOWN
NORAD 10618·DEBRIS·🇷🇺 Russia

Lancé Jul 8, 1976 depuis Plesetsk Cosmodrome

Loading…

Prochains Passages (prochaines 24 heures)

TLE

FraisSource: Space-Track

Époque: Sep 13, 2026, 16:51 UTC

1 10618U 76067AS  26256.70219980 -.00000028  00000-0  85630-4 0  9996
2 10618  65.8418  63.0493 0728662 204.7610 166.6485 12.38960199268411

Suivez COSMOS 839 DEB en temps réel avec AllMySat

Download on the App Store